| time (UTC) | temp F | wind direction | speed knots | gust knots | rain 1hr in | rain 24hr in | rain mn in | humidity % | barometer mb |
| 20260906071657 | 64 | 360 | 5.2 | 11.3 | 0.00 | 0.00 | 0.00 | 77 | 1011.6 |
| 20260906070058 | 64 | 360 | 5.2 | 9.6 | 0.00 | 0.00 | 0.00 | 78 | 1011.6 |
| 20260906064556 | 64 | 360 | 2.6 | 7.0 | 0.00 | 0.00 | 0.00 | 81 | 1011.8 |
| 20260906063056 | 64 | 360 | 2.6 | 5.2 | 0.00 | 0.00 | 0.00 | 81 | 1012.3 |
| 20260906061557 | 64 | 360 | 2.6 | 7.0 | 0.00 | 0.00 | 0.00 | 80 | 1012.4 |
| 20260906060053 | 64 | 360 | 2.6 | 7.0 | 0.00 | 0.00 | 0.00 | 79 | 1012.4 |
| 20260906054602 | 64 | 360 | 2.6 | 7.8 | 0.00 | 0.00 | 0.00 | 77 | 1012.6 |
| 20260906053058 | 64 | 360 | 3.5 | 7.8 | 0.00 | 0.00 | 0.00 | 75 | 1012.7 |
| 20260906051606 | 64 | 360 | 3.5 | 8.7 | 0.00 | 0.00 | 0.00 | 73 | 1012.8 |
| 20260906050048 | 63 | 360 | 2.6 | 5.2 | 0.00 | 0.00 | 0.00 | 72 | 1012.9 |
| 20260906044554 | 64 | 360 | 2.6 | 7.8 | 0.00 | 0.00 | 0.00 | 72 | 1012.9 |
| 20260906043047 | 64 | 360 | 3.5 | 8.7 | 0.00 | 0.00 | 0.00 | 73 | 1013.0 |
| 20260906041550 | 64 | 360 | 3.5 | 7.0 | 0.00 | 0.00 | 0.00 | 72 | 1012.9 |
| 20260906040123 | 63 | 360 | 4.3 | 9.6 | 0.00 | 0.00 | 0.00 | 62 | 1013.1 |
| 20260906034550 | 63 | 360 | 3.5 | 7.8 | 0.00 | 0.00 | 0.00 | 57 | 1013.1 |
| 20260906033100 | 63 | 360 | 3.5 | 7.0 | 0.00 | 0.00 | 0.00 | 54 | 1013.3 |
| 20260906031540 | 63 | 360 | 3.5 | 8.7 | 0.00 | 0.00 | 0.00 | 55 | 1013.0 |
| 20260906030040 | 63 | 360 | 4.3 | 8.7 | 0.00 | 0.00 | 0.00 | 60 | 1013.1 |
| 20260906024540 | 64 | 360 | 3.5 | 8.7 | 0.00 | 0.00 | 0.00 | 69 | 1012.8 |
| 20260906023038 | 64 | 360 | 6.1 | 8.7 | 0.00 | 0.00 | 0.00 | 73 | 1012.6 |
| 20260906021509 | 64 | 360 | 4.3 | 7.8 | 0.00 | 0.00 | 0.00 | 75 | 1012.8 |
| 20260906020008 | 64 | 360 | 4.3 | 7.0 | 0.00 | 0.00 | 0.00 | 73 | 1012.8 |
| 20260906014538 | 64 | 360 | 2.6 | 7.8 | 0.00 | 0.00 | 0.00 | 70 | 1012.6 |
| 20260906013037 | 64 | 360 | 3.5 | 7.8 | 0.00 | 0.00 | 0.00 | 68 | 1012.4 |
| 20260906011537 | 64 | 360 | 4.3 | 8.7 | 0.00 | 0.00 | 0.00 | 73 | 1012.2 |
| 20260906010034 | 64 | 360 | 4.3 | 7.8 | 0.00 | 0.00 | 0.00 | 75 | 1011.9 |
| 20260906004532 | 64 | 360 | 4.3 | 11.3 | 0.00 | 0.00 | 0.00 | 78 | 1011.7 |
| 20260906003032 | 64 | 360 | 5.2 | 11.3 | 0.00 | 0.00 | 0.00 | 82 | 1011.4 |
| 20260906001534 | 64 | 360 | 5.2 | 10.4 | 0.00 | 0.00 | 0.00 | 83 | 1011.2 |
| 20260906000029 | 64 | 360 | 4.3 | 10.4 | 0.00 | 0.00 | 0.00 | 84 | 1011.1 |
| 20260905234529 | 65 | 360 | 6.1 | 10.4 | 0.00 | 0.00 | 0.00 | 83 | 1011.1 |
| 20260905233028 | 66 | 360 | 5.2 | 10.4 | 0.00 | 0.00 | 0.00 | 83 | 1011.1 |
| 20260905231559 | 66 | 360 | 4.3 | 9.6 | 0.00 | 0.00 | 0.00 | 83 | 1010.9 |
| 20260905230105 | 67 | 360 | 5.2 | 12.2 | 0.00 | 0.00 | 0.00 | 82 | 1010.9 |
| 20260905224603 | 68 | 360 | 4.3 | 11.3 | 0.00 | 0.00 | 0.00 | 83 | 1011.0 |
| 20260905223026 | 69 | 360 | 4.3 | 12.2 | 0.00 | 0.00 | 0.00 | 82 | 1011.1 |
| 20260905221558 | 69 | 360 | 5.2 | 13.0 | 0.00 | 0.00 | 0.00 | 82 | 1011.2 |
| 20260905220055 | 69 | 360 | 5.2 | 14.8 | 0.00 | 0.00 | 0.00 | 81 | 1011.2 |
| 20260905214555 | 70 | 360 | 6.1 | 11.3 | 0.00 | 0.00 | 0.00 | 80 | 1011.2 |
| 20260905213057 | 70 | 360 | 5.2 | 12.2 | 0.00 | 0.00 | 0.00 | 79 | 1011.1 |
| 20260905211550 | 70 | 360 | 3.5 | 13.9 | 0.00 | 0.00 | 0.00 | 78 | 1011.3 |
| 20260905210058 | 70 | 360 | 3.5 | 12.2 | 0.00 | 0.00 | 0.00 | 79 | 1011.2 |
| 20260905204518 | 70 | 360 | 3.5 | 9.6 | 0.00 | 0.00 | 0.00 | 79 | 1011.3 |
| 20260905203019 | 70 | 360 | 3.5 | 12.2 | 0.00 | 0.00 | 0.00 | 79 | 1011.3 |
| 20260905201521 | 69 | 360 | 3.5 | 10.4 | 0.00 | 0.00 | 0.00 | 78 | 1011.1 |
| 20260905200116 | 69 | 360 | 3.5 | 11.3 | 0.00 | 0.00 | 0.00 | 77 | 1011.1 |
| 20260905194517 | 69 | 360 | 2.6 | 10.4 | 0.00 | 0.00 | 0.00 | 77 | 1011.3 |
| 20260905193014 | 66 | 360 | 4.3 | 13.0 | 0.00 | 0.00 | 0.00 | 81 | 1011.3 |
| 20260905191511 | 64 | 360 | 4.3 | 12.2 | 0.00 | 0.00 | 0.00 | 83 | 1011.1 |
| 20260905190011 | 63 | 360 | 4.3 | 11.3 | 0.00 | 0.00 | 0.00 | 82 | 1011.3 |
| 20260905184524 | 62 | 360 | 5.2 | 12.2 | 0.00 | 0.00 | 0.00 | 81 | 1011.2 |
| 20260905183008 | 61 | 360 | 6.1 | 12.2 | 0.00 | 0.00 | 0.00 | 80 | 1011.3 |
| 20260905181503 | 61 | 360 | 6.1 | 10.4 | 0.00 | 0.00 | 0.00 | 78 | 1011.8 |
| 20260905180001 | 62 | 360 | 5.2 | 10.4 | 0.00 | 0.00 | 0.00 | 81 | 1011.9 |
| 20260905174559 | 61 | 360 | 4.3 | 8.7 | 0.00 | 0.00 | 0.00 | 68 | 1012.6 |
| 20260905173118 | 60 | 360 | 4.3 | 8.7 | 0.00 | 0.00 | 0.00 | 61 | 1013.4 |
| 20260905171553 | 60 | 360 | 6.1 | 11.3 | 0.00 | 0.00 | 0.00 | 73 | 1013.6 |
| 20260905170021 | 61 | 360 | 6.1 | 11.3 | 0.00 | 0.00 | 0.00 | 78 | 1013.6 |
| 20260905164524 | 67 | 360 | 11.3 | 18.2 | 0.00 | 0.00 | 0.00 | 83 | 1013.5 |
| 20260905163046 | 70 | 360 | 5.2 | 10.4 | 0.00 | 0.00 | 0.00 | 83 | 1013.4 |
| 20260905161602 | 71 | 360 | 2.6 | 9.6 | 0.00 | 0.00 | 0.00 | 83 | 1013.2 |
| 20260905160015 | 71 | 360 | 2.6 | 11.3 | 0.00 | 0.00 | 0.00 | 83 | 1013.0 |
| 20260905154513 | 70 | 360 | 4.3 | 10.4 | 0.00 | 0.00 | 0.00 | 83 | 1013.4 |
| 20260905153016 | 70 | 360 | 5.2 | 13.0 | 0.00 | 0.00 | 0.00 | 83 | 1013.5 |
| 20260905151517 | 70 | 360 | 3.5 | 10.4 | 0.00 | 0.00 | 0.00 | 82 | 1013.0 |
| 20260905150006 | 70 | 360 | 3.5 | 10.4 | 0.00 | 0.00 | 0.00 | 82 | 1012.9 |
| 20260905144512 | 69 | 360 | 1.7 | 12.2 | 0.00 | 0.00 | 0.00 | 81 | 1012.7 |
| 20260905143104 | 69 | 360 | 2.6 | 10.4 | 0.00 | 0.00 | 0.00 | 82 | 1012.8 |
| 20260905141600 | 69 | 360 | 4.3 | 10.4 | 0.00 | 0.00 | 0.00 | 82 | 1012.9 |
| 20260905140055 | 69 | 360 | 3.5 | 10.4 | 0.00 | 0.00 | 0.00 | 83 | 1012.8 |
| 20260905134556 | 69 | 360 | 3.5 | 12.2 | 0.00 | 0.00 | 0.00 | 83 | 1012.8 |
| 20260905133050 | 69 | 360 | 3.5 | 8.7 | 0.00 | 0.00 | 0.00 | 83 | 1012.8 |
| 20260905131553 | 69 | 360 | 2.6 | 9.6 | 0.00 | 0.00 | 0.00 | 82 | 1013.2 |
| 20260905130048 | 69 | 360 | 3.5 | 12.2 | 0.00 | 0.00 | 0.00 | 82 | 1013.4 |
| 20260905124549 | 68 | 360 | 1.7 | 8.7 | 0.00 | 0.00 | 0.00 | 81 | 1013.6 |
| 20260905123016 | 67 | 360 | 1.7 | 8.7 | 0.00 | 0.00 | 0.00 | 77 | 1013.4 |
| 20260905121513 | 67 | 360 | 3.5 | 7.0 | 0.00 | 0.00 | 0.00 | 75 | 1013.3 |
| 20260905120010 | 66 | 360 | 1.7 | 7.0 | 0.00 | 0.00 | 0.00 | 76 | 1013.2 |
| 20260905114510 | 66 | 360 | 3.5 | 8.7 | 0.00 | 0.00 | 0.00 | 77 | 1013.0 |
| 20260905113012 | 66 | 360 | 3.5 | 7.8 | 0.00 | 0.00 | 0.00 | 77 | 1012.9 |
| 20260905111509 | 66 | 360 | 2.6 | 9.6 | 0.00 | 0.00 | 0.00 | 76 | 1012.8 |
| 20260905110039 | 66 | 360 | 3.5 | 8.7 | 0.00 | 0.00 | 0.00 | 76 | 1012.6 |
| 20260905104543 | 66 | 360 | 2.6 | 7.8 | 0.00 | 0.00 | 0.00 | 78 | 1012.3 |
| 20260905103034 | 66 | 360 | 4.3 | 7.8 | 0.00 | 0.00 | 0.00 | 79 | 1012.4 |
| 20260905101534 | 67 | 360 | 4.3 | 9.6 | 0.00 | 0.00 | 0.00 | 80 | 1012.4 |
| 20260905100106 | 67 | 360 | 3.5 | 9.6 | 0.00 | 0.00 | 0.00 | 81 | 1012.1 |
| 20260905094544 | 67 | 360 | 3.5 | 12.2 | 0.00 | 0.00 | 0.00 | 81 | 1012.2 |
| 20260905093059 | 67 | 360 | 4.3 | 9.6 | 0.00 | 0.00 | 0.00 | 81 | 1012.1 |
| 20260905091611 | 67 | 360 | 3.5 | 8.7 | 0.00 | 0.00 | 0.00 | 81 | 1012.2 |
| 20260905090053 | 67 | 360 | 4.3 | 7.8 | 0.00 | 0.00 | 0.00 | 82 | 1012.3 |
| 20260905084552 | 67 | 360 | 1.7 | 7.0 | 0.00 | 0.00 | 0.00 | 83 | 1012.4 |
| 20260905083106 | 67 | 360 | 2.6 | 8.7 | 0.00 | 0.00 | 0.00 | 83 | 1012.7 |
| 20260905081549 | 68 | 310 | 1.7 | 7.0 | 0.00 | 0.00 | 0.00 | 83 | 1012.6 |
| 20260905080044 | 68 | 360 | 3.5 | 7.0 | 0.00 | 0.00 | 0.00 | 83 | 1012.8 |
| 20260905074547 | 68 | 360 | 1.7 | 4.3 | 0.00 | 0.00 | 0.00 | 83 | 1013.0 |
| 20260905073042 | 68 | 360 | 0.9 | 7.0 | 0.00 | 0.00 | 0.00 | 83 | 1013.0 |